QPF
0.01 0.00 0.00 0.01 0.01 0.01 0.01 0.01 0.02 0.02 0.03 0.05 0.06 0.07 0.08 0.07 0.06 0.06 0.05 0.05 0.04 0.03 0.02 0.02 0.01 0.01 0.03 0.04 0.06 0.07 0.08 0.10 0.11 0.11 0.13 0.15 0.16 0.15
0.01 0.00 0.00 0.00 0.00 0.00 0.00 0.01 0.01 0.01 0.02 0.03 0.04 0.04 0.04 0.04 0.04 0.04 0.04 0.04 0.03 0.03 0.02 0.02 0.02 0.01 0.01 0.02 0.03 0.04 0.05 0.05 0.06 0.08 0.09 0.09 0.10 0.12
0.00 0.00 0.00 0.00 0.00 0.00 0.00 0.00 0.01 0.02 0.02 0.02 0.02 0.02 0.02 0.01 0.01 0.02 0.03 0.02 0.02 0.02 0.02 0.01 0.01 0.01 0.01 0.01 0.01 0.02 0.03 0.04 0.04 0.04 0.06 0.06 0.06 0.07
0.00 0.00 0.00 0.00 0.00 0.00 0.00 0.01 0.01 0.01 0.02 0.02 0.02 0.02 0.02 0.01 0.01 0.01 0.01 0.01 0.01 0.01 0.02 0.01 0.01 0.01 0.02 0.01 0.01 0.01 0.01 0.02 0.03 0.04 0.05 0.06 0.07 0.07
0.00 0.00 0.00 0.00 0.00 0.00 0.01 0.01 0.00 0.01 0.01 0.02 0.02 0.02 0.01 0.01 0.01 0.01 0.01 0.01 0.01 0.01 0.01 0.01 0.02 0.02 0.02 0.02 0.02 0.02 0.02 0.03 0.02 0.03 0.04 0.05 0.06 0.07
0.00 0.00 0.00 0.00 0.00 0.01 0.00 0.00 0.00 0.00 0.01 0.01 0.01 0.01 0.00 0.00 0.00 0.00 0.00 0.00 0.01 0.01 0.01 0.01 0.01 0.01 0.01 0.01 0.02 0.02 0.03 0.04 0.04 0.04 0.04 0.03 0.04 0.05
0.00 0.00 0.00 0.00 0.00 0.01 0.01 0.00 0.00 0.00 0.00 0.01 0.02 0.02 0.01 0.00 0.00 0.00 0.00 0.00 0.01 0.01 0.01 0.01 0.01 0.01 0.01 0.01 0.01 0.01 0.01 0.02 0.03 0.03 0.04 0.04 0.04 0.04
0.00 0.00 0.00 0.00 0.00 0.00 0.00 0.00 0.00 0.00 0.00 0.01 0.02 0.01 0.01 0.00 0.00 0.00 0.00 0.00 0.00 0.01 0.01 0.01 0.00 0.00 0.01 0.01 0.01 0.01 0.01 0.01 0.02 0.03 0.04 0.03 0.03 0.03
0.00 0.00 0.00 0.00 0.00 0.00 0.00 0.00 0.00 0.00 0.01 0.01 0.01 0.00 0.00 0.00 0.00 0.00 0.00 0.00 0.00 0.01 0.01 0.01 0.01 0.00 0.00 0.00 0.01 0.01 0.01 0.01 0.02 0.02 0.03 0.03 0.03 0.03
0.00 0.00 0.00 0.00 0.00 0.00 0.00 0.00 0.00 0.00 0.00 0.01 0.01 0.00 0.00 0.00 0.00 0.00 0.00 0.00 0.01 0.01 0.01 0.01 0.01 0.00 0.00 0.00 0.01 0.01 0.02 0.02 0.01 0.01 0.02 0.02 0.04 0.04
0.00 0.00 0.00 0.00 0.00 0.00 0.00 0.00 0.00 0.00 0.00 0.00 0.01 0.00 0.00 0.00 0.00 0.00 0.00 0.00 0.01 0.02 0.02 0.02 0.02 0.01 0.00 0.00 0.01 0.01 0.02 0.02 0.02 0.03 0.03 0.03 0.03 0.04
0.00 0.00 0.00 0.00 0.00 0.00 0.00 0.00 0.00 0.00 0.00 0.00 0.00 0.00 0.00 0.00 0.00 0.00 0.00 0.00 0.01 0.02 0.02 0.02 0.01 0.01 0.01 0.01 0.01 0.01 0.02 0.02 0.02 0.02 0.03 0.04 0.04 0.04
0.00 0.00 0.00 0.00 0.00 0.00 0.00 0.00 0.00 0.00 0.00 0.00 0.00 0.00 0.00 0.01 0.00 0.00 0.00 0.01 0.02 0.02 0.02 0.02 0.01 0.01 0.01 0.01 0.01 0.02 0.02 0.03 0.02 0.02 0.03 0.03 0.03 0.03
0.00 0.00 0.00 0.00 0.00 0.00 0.00 0.00 0.00 0.00 0.00 0.00 0.00 0.00 0.00 0.00 0.01 0.00 0.00 0.00 0.00 0.01 0.01 0.01 0.01 0.00 0.01 0.01 0.01 0.01 0.02 0.02 0.04 0.05 0.04 0.05 0.05 0.05
0.00 0.00 0.00 0.00 0.00 0.00 0.00 0.00 0.00 0.00 0.00 0.00 0.00 0.00 0.00 0.00 0.00 0.00 0.00 0.00 0.00 0.00 0.01 0.01 0.00 0.00 0.01 0.01 0.01 0.01 0.01 0.01 0.01 0.02 0.03 0.03 0.05 0.06
0.00 0.00 0.00 0.00 0.00 0.00 0.00 0.00 0.00 0.00 0.00 0.00 0.00 0.00 0.00 0.00 0.00 0.00 0.00 0.00 0.00 0.00 0.00 0.00 0.00 0.00 0.00 0.00 0.00 0.00 0.00 0.01 0.01 0.01 0.01 0.01 0.01 0.02
0.00 0.00 0.00 0.00 0.00 0.00 0.00 0.00 0.00 0.00 0.00 0.00 0.00 0.00 0.00 0.00 0.00 0.00 0.00 0.00 0.00 0.00 0.00 0.00 0.00 0.00 0.00 0.00 0.00 0.00 0.00 0.00 0.01 0.01 0.01 0.01 0.01 0.01
0.00 0.00 0.00 0.00 0.00 0.00 0.00 0.00 0.00 0.00 0.00 0.00 0.00 0.00 0.00 0.00 0.00 0.00 0.00 0.00 0.00 0.00 0.00 0.00 0.00 0.00 0.00 0.00 0.00 0.00 0.00 0.00 0.00 0.01 0.01 0.02 0.02 0.01
0.00 0.00 0.00 0.00 0.00 0.00 0.00 0.00 0.00 0.00 0.00 0.00 0.00 0.00 0.00 0.00 0.00 0.00 0.00 0.00 0.00 0.00 0.00 0.00 0.00 0.00 0.00 0.01 0.01 0.01 0.01 0.01 0.01 0.01 0.01 0.01 0.02 0.02
0.00 0.00 0.00 0.00 0.00 0.00 0.00 0.00 0.00 0.00 0.00 0.00 0.00 0.00 0.00 0.00 0.00 0.00 0.00 0.00 0.00 0.00 0.00 0.00 0.00 0.00 0.00 0.00 0.01 0.01 0.01 0.01 0.01 0.01 0.01 0.01 0.01 0.01
0.00 0.00 0.00 0.00 0.00 0.00 0.00 0.00 0.00 0.00 0.00 0.00 0.00 0.00 0.00 0.00 0.00 0.00 0.00 0.00 0.00 0.00 0.00 0.00 0.00 0.00 0.00 0.00 0.00 0.00 0.00 0.00 0.00 0.00 0.00 0.00 0.01 0.01
0.00 0.00 0.00 0.00 0.00 0.00 0.00 0.00 0.00 0.00 0.00 0.00 0.00 0.00 0.00 0.00 0.00 0.00 0.00 0.00 0.00 0.00 0.00 0.00 0.00 0.00 0.00 0.00 0.00 0.00 0.00 0.00 0.00 0.00 0.00 0.00 0.00 0.00
0.00 0.00 0.00 0.00 0.00 0.00 0.00 0.00 0.00 0.00 0.00 0.00 0.00 0.00 0.00 0.00 0.00 0.00 0.00 0.00 0.00 0.00 0.00 0.00 0.00 0.00 0.00 0.00 0.00 0.00 0.00 0.00 0.00 0.00 0.00 0.00 0.00 0.00
MSLP
1011.54 1011.56 1011.62 1011.70 1011.79 1011.88 1011.97 1012.06 1012.15 1012.23 1012.32 1012.40 1012.47 1012.52 1012.55 1012.56 1012.55 1012.55 1012.56 1012.60 1012.69 1012.82 1013.00 1013.21 1013.42 1013.63 1013.82 1013.97 1014.09 1014.18 1014.27 1014.37 1014.49 1014.63 1014.79 1014.97 1015.14 1015.29
1011.86 1011.85 1011.86 1011.91 1011.97 1012.05 1012.15 1012.27 1012.40 1012.54 1012.69 1012.81 1012.91 1012.98 1013.00 1012.98 1012.94 1012.87 1012.82 1012.80 1012.83 1012.91 1013.03 1013.19 1013.37 1013.54 1013.70 1013.82 1013.91 1013.98 1014.04 1014.11 1014.19 1014.29 1014.42 1014.56 1014.69 1014.81
1012.18 1012.14 1012.12 1012.13 1012.17 1012.25 1012.36 1012.51 1012.68 1012.88 1013.07 1013.25 1013.39 1013.48 1013.51 1013.47 1013.40 1013.30 1013.19 1013.12 1013.08 1013.10 1013.17 1013.28 1013.42 1013.55 1013.67 1013.75 1013.81 1013.84 1013.86 1013.89 1013.92 1013.98 1014.07 1014.16 1014.26 1014.35
1012.46 1012.41 1012.37 1012.36 1012.39 1012.46 1012.58 1012.75 1012.97 1013.21 1013.45 1013.68 1013.86 1013.97 1014.02 1013.98 1013.89 1013.77 1013.63 1013.50 1013.42 1013.39 1013.40 1013.46 1013.54 1013.62 1013.70 1013.74 1013.75 1013.74 1013.71 1013.69 1013.67 1013.68 1013.72 1013.78 1013.84 1013.90
1012.68 1012.64 1012.60 1012.58 1012.59 1012.66 1012.79 1012.98 1013.22 1013.50 1013.78 1014.04 1014.26 1014.40 1014.47 1014.45 1014.36 1014.22 1014.07 1013.91 1013.79 1013.71 1013.67 1013.68 1013.70 1013.73 1013.74 1013.74 1013.69 1013.63 1013.55 1013.47 1013.40 1013.36 1013.35 1013.37 1013.41 1013.46
1012.84 1012.81 1012.77 1012.76 1012.77 1012.84 1012.98 1013.17 1013.42 1013.71 1014.01 1014.30 1014.54 1014.71 1014.80 1014.80 1014.73 1014.60 1014.45 1014.28 1014.13 1014.01 1013.93 1013.88 1013.85 1013.82 1013.77 1013.70 1013.60 1013.47 1013.33 1013.20 1013.08 1012.99 1012.95 1012.93 1012.95 1012.99
1012.91 1012.90 1012.89 1012.88 1012.91 1012.98 1013.11 1013.30 1013.54 1013.83 1014.13 1014.41 1014.66 1014.86 1014.97 1015.00 1014.96 1014.86 1014.71 1014.55 1014.40 1014.26 1014.14 1014.04 1013.95 1013.85 1013.74 1013.60 1013.44 1013.25 1013.06 1012.87 1012.71 1012.58 1012.49 1012.46 1012.46 1012.49
1012.87 1012.90 1012.92 1012.94 1012.98 1013.06 1013.18 1013.35 1013.58 1013.83 1014.11 1014.38 1014.63 1014.83 1014.97 1015.03 1015.03 1014.96 1014.85 1014.71 1014.55 1014.40 1014.26 1014.11 1013.97 1013.82 1013.64 1013.44 1013.22 1012.98 1012.74 1012.50 1012.29 1012.13 1012.02 1011.95 1011.94 1011.96
1012.74 1012.81 1012.86 1012.92 1012.98 1013.07 1013.18 1013.33 1013.52 1013.74 1013.98 1014.22 1014.45 1014.65 1014.80 1014.90 1014.94 1014.92 1014.85 1014.74 1014.61 1014.46 1014.30 1014.12 1013.94 1013.73 1013.51 1013.26 1012.98 1012.70 1012.41 1012.14 1011.89 1011.70 1011.55 1011.47 1011.43 1011.44
1012.51 1012.62 1012.73 1012.82 1012.92 1013.01 1013.11 1013.24 1013.39 1013.56 1013.75 1013.96 1014.17 1014.37 1014.53 1014.66 1014.74 1014.77 1014.75 1014.69 1014.58 1014.45 1014.28 1014.09 1013.88 1013.64 1013.37 1013.08 1012.77 1012.45 1012.13 1011.83 1011.56 1011.34 1011.16 1011.04 1010.98 1010.95
1012.22 1012.38 1012.53 1012.66 1012.78 1012.89 1012.99 1013.10 1013.21 1013.34 1013.49 1013.67 1013.85 1014.04 1014.22 1014.38 1014.50 1014.58 1014.62 1014.60 1014.53 1014.41 1014.26 1014.07 1013.84 1013.58 1013.29 1012.97 1012.64 1012.30 1011.97 1011.64 1011.35 1011.10 1010.89 1010.73 1010.62 1010.54
1011.90 1012.09 1012.28 1012.46 1012.61 1012.74 1012.85 1012.94 1013.03 1013.13 1013.25 1013.40 1013.57 1013.76 1013.95 1014.14 1014.30 1014.42 1014.50 1014.53 1014.50 1014.41 1014.27 1014.08 1013.85 1013.58 1013.28 1012.96 1012.62 1012.28 1011.93 1011.60 1011.29 1011.01 1010.77 1010.56 1010.39 1010.25
1011.59 1011.81 1012.03 1012.24 1012.43 1012.58 1012.70 1012.79 1012.88 1012.97 1013.08 1013.21 1013.38 1013.57 1013.78 1013.99 1014.18 1014.34 1014.46 1014.52 1014.52 1014.46 1014.33 1014.16 1013.93 1013.67 1013.37 1013.06 1012.72 1012.38 1012.04 1011.70 1011.38 1011.07 1010.79 1010.53 1010.30 1010.08
1011.32 1011.56 1011.80 1012.04 1012.25 1012.42 1012.57 1012.68 1012.78 1012.88 1013.00 1013.14 1013.31 1013.52 1013.74 1013.97 1014.19 1014.38 1014.52 1014.60 1014.62 1014.57 1014.46 1014.29 1014.08 1013.83 1013.54 1013.24 1012.91 1012.58 1012.25 1011.91 1011.57 1011.24 1010.93 1010.62 1010.32 1010.03
1011.11 1011.36 1011.62 1011.87 1012.10 1012.31 1012.48 1012.63 1012.76 1012.89 1013.04 1013.20 1013.40 1013.62 1013.86 1014.10 1014.32 1014.52 1014.67 1014.76 1014.78 1014.74 1014.63 1014.47 1014.27 1014.03 1013.76 1013.47 1013.16 1012.84 1012.51 1012.17 1011.83 1011.47 1011.12 1010.76 1010.40 1010.05
1010.99 1011.23 1011.49 1011.75 1012.00 1012.24 1012.45 1012.64 1012.82 1013.00 1013.19 1013.39 1013.62 1013.86 1014.10 1014.35 1014.57 1014.76 1014.89 1014.97 1014.98 1014.93 1014.83 1014.67 1014.47 1014.23 1013.98 1013.70 1013.40 1013.09 1012.77 1012.43 1012.07 1011.70 1011.31 1010.91 1010.51 1010.09
1010.95 1011.18 1011.42 1011.69 1011.95 1012.22 1012.47 1012.71 1012.95 1013.19 1013.43 1013.68 1013.94 1014.19 1014.44 1014.68 1014.88 1015.04 1015.15 1015.20 1015.19 1015.12 1015.01 1014.84 1014.65 1014.42 1014.17 1013.90 1013.61 1013.31 1012.98 1012.63 1012.26 1011.86 1011.45 1011.02 1010.57 1010.11
1010.98 1011.18 1011.42 1011.68 1011.96 1012.25 1012.54 1012.84 1013.14 1013.43 1013.73 1014.02 1014.30 1014.57 1014.82 1015.04 1015.21 1015.34 1015.41 1015.42 1015.38 1015.29 1015.15 1014.98 1014.78 1014.56 1014.31 1014.05 1013.76 1013.45 1013.11 1012.75 1012.36 1011.94 1011.50 1011.03 1010.56 1010.07
1011.03 1011.23 1011.46 1011.72 1012.01 1012.32 1012.65 1012.99 1013.34 1013.69 1014.03 1014.36 1014.67 1014.95 1015.18 1015.37 1015.51 1015.59 1015.62 1015.60 1015.52 1015.41 1015.26 1015.08 1014.87 1014.65 1014.40 1014.14 1013.84 1013.52 1013.16 1012.77 1012.36 1011.91 1011.44 1010.95 1010.44 1009.93
1011.10 1011.29 1011.52 1011.78 1012.08 1012.41 1012.77 1013.15 1013.54 1013.93 1014.31 1014.67 1014.98 1015.26 1015.47 1015.64 1015.74 1015.78 1015.77 1015.71 1015.61 1015.48 1015.32 1015.13 1014.93 1014.70 1014.45 1014.17 1013.86 1013.51 1013.13 1012.71 1012.26 1011.78 1011.27 1010.75 1010.23 1009.70
1011.14 1011.35 1011.58 1011.84 1012.15 1012.50 1012.88 1013.28 1013.71 1014.12 1014.52 1014.89 1015.21 1015.47 1015.67 1015.81 1015.88 1015.89 1015.85 1015.77 1015.65 1015.51 1015.34 1015.16 1014.95 1014.72 1014.46 1014.17 1013.83 1013.45 1013.03 1012.57 1012.07 1011.55 1011.01 1010.47 1009.92 1009.37
1011.13 1011.36 1011.61 1011.89 1012.20 1012.56 1012.95 1013.38 1013.81 1014.24 1014.65 1015.03 1015.34 1015.59 1015.77 1015.88 1015.93 1015.92 1015.86 1015.77 1015.65 1015.50 1015.34 1015.16 1014.95 1014.72 1014.44 1014.12 1013.75 1013.33 1012.86 1012.35 1011.81 1011.25 1010.67 1010.10 1009.53 1008.97
1011.04 1011.31 1011.59 1011.88 1012.22 1012.58 1012.99 1013.42 1013.86 1014.29 1014.70 1015.06 1015.37 1015.61 1015.77 1015.87 1015.90 1015.88 1015.82 1015.73 1015.61 1015.48 1015.32 1015.14 1014.93 1014.68 1014.38 1014.03 1013.61 1013.15 1012.62 1012.06 1011.47 1010.87 1010.26 1009.66 1009.07 1008.51
Thickness
5673 5674 5675 5677 5679 5681 5682 5683 5681 5679 5681 5688 5693 5699 5703 5706 5709 5712 5715 5717 5719 5720 5721 5723 5724 5725 5726 5727 5727 5728 5728 5729 5730 5730 5730 5731 5731 5731
5673 5673 5673 5674 5676 5678 5679 5681 5682 5680 5678 5683 5688 5693 5697 5701 5704 5706 5709 5711 5713 5715 5717 5718 5719 5720 5721 5722 5723 5724 5725 5725 5726 5726 5727 5728 5728 5728
5672 5672 5672 5672 5673 5674 5676 5677 5678 5679 5676 5678 5684 5688 5691 5694 5697 5700 5703 5705 5707 5710 5712 5713 5714 5715 5716 5717 5718 5719 5720 5721 5721 5722 5723 5724 5724 5725
5670 5670 5670 5671 5670 5671 5672 5673 5674 5676 5675 5674 5677 5681 5685 5688 5691 5694 5696 5699 5701 5704 5706 5707 5708 5709 5711 5712 5713 5714 5715 5716 5716 5717 5718 5719 5720 5720
5670 5670 5669 5669 5668 5669 5669 5669 5670 5672 5672 5671 5672 5675 5678 5682 5684 5687 5689 5691 5695 5697 5699 5701 5702 5703 5704 5705 5707 5708 5709 5710 5711 5712 5712 5713 5714 5715
5671 5670 5670 5669 5668 5668 5668 5667 5668 5667 5667 5667 5667 5669 5671 5675 5677 5677 5679 5683 5686 5690 5692 5693 5695 5696 5697 5699 5700 5702 5703 5704 5705 5706 5706 5707 5708 5708
5671 5671 5670 5670 5670 5669 5668 5666 5665 5664 5663 5663 5663 5664 5665 5667 5669 5671 5672 5674 5677 5680 5682 5685 5687 5689 5690 5692 5694 5695 5697 5698 5698 5699 5699 5700 5701 5701
5670 5670 5670 5670 5670 5669 5668 5667 5666 5663 5661 5660 5659 5660 5661 5663 5664 5665 5665 5665 5667 5672 5673 5676 5679 5680 5683 5684 5687 5688 5690 5690 5691 5691 5691 5692 5693 5693
5671 5669 5670 5670 5668 5666 5666 5666 5665 5664 5663 5660 5658 5658 5659 5660 5661 5660 5659 5659 5660 5664 5665 5666 5670 5671 5675 5677 5679 5680 5681 5681 5682 5682 5683 5684 5685 5685
5671 5669 5668 5667 5667 5665 5663 5662 5661 5661 5661 5660 5659 5659 5659 5659 5658 5657 5656 5654 5655 5657 5658 5657 5661 5663 5667 5669 5670 5671 5671 5672 5673 5674 5675 5675 5676 5678
5671 5670 5668 5667 5667 5665 5662 5659 5658 5658 5659 5659 5658 5657 5657 5656 5655 5652 5650 5648 5647 5649 5651 5650 5652 5654 5657 5659 5661 5661 5662 5663 5664 5665 5666 5667 5668 5669
5669 5669 5668 5667 5666 5664 5660 5657 5655 5654 5655 5654 5653 5653 5652 5652 5651 5648 5646 5642 5641 5641 5644 5643 5644 5644 5645 5649 5650 5652 5652 5653 5654 5656 5657 5658 5659 5660
5666 5665 5665 5666 5665 5663 5660 5656 5655 5652 5650 5648 5647 5646 5645 5645 5644 5643 5641 5639 5636 5635 5637 5637 5635 5635 5634 5636 5639 5641 5642 5643 5645 5646 5648 5649 5650 5651
5664 5663 5662 5662 5661 5659 5656 5654 5651 5648 5645 5642 5640 5638 5637 5637 5636 5636 5635 5634 5632 5631 5630 5629 5627 5626 5625 5626 5628 5630 5632 5633 5634 5636 5637 5639 5641 5642
5661 5660 5659 5658 5656 5653 5651 5648 5645 5642 5638 5635 5633 5631 5630 5629 5629 5628 5627 5626 5625 5624 5623 5621 5620 5619 5618 5618 5618 5619 5620 5622 5623 5624 5626 5628 5629 5631
5656 5654 5653 5651 5648 5646 5643 5640 5638 5635 5632 5629 5626 5624 5623 5621 5619 5618 5616 5615 5613 5612 5613 5613 5612 5610 5609 5609 5608 5608 5608 5609 5611 5612 5614 5616 5618 5620
5649 5646 5643 5641 5638 5636 5634 5632 5629 5627 5624 5621 5618 5616 5614 5612 5610 5608 5606 5604 5601 5599 5599 5600 5601 5601 5600 5599 5598 5598 5598 5598 5599 5600 5602 5604 5607 5607
5643 5639 5636 5634 5631 5629 5626 5623 5621 5618 5616 5613 5610 5607 5604 5602 5599 5597 5595 5592 5590 5588 5587 5586 5586 5587 5587 5588 5588 5587 5586 5585 5586 5587 5588 5590 5594 5596
5635 5632 5629 5626 5624 5621 5618 5615 5612 5610 5607 5604 5601 5597 5594 5592 5589 5586 5583 5581 5578 5576 5575 5574 5573 5571 5569 5570 5573 5574 5572 5572 5573 5574 5574 5576 5579 5584
5627 5625 5622 5619 5616 5613 5610 5607 5604 5601 5598 5594 5591 5588 5585 5582 5578 5575 5572 5570 5567 5565 5563 5562 5560 5558 5556 5557 5559 5560 5559 5558 5558 5559 5561 5564 5567 5571
5619 5617 5614 5611 5608 5605 5602 5599 5595 5592 5588 5585 5581 5578 5575 5571 5568 5565 5562 5560 5557 5554 5551 5549 5548 5548 5547 5546 5546 5548 5548 5546 5545 5544 5546 5548 5551 5555
5612 5609 5606 5604 5600 5597 5593 5590 5586 5583 5579 5575 5572 5568 5565 5561 5558 5555 5551 5548 5545 5543 5541 5539 5538 5536 5534 5532 5533 5535 5537 5536 5535 5533 5533 5532 5531 5536
5604 5601 5598 5595 5592 5589 5585 5581 5578 5573 5570 5566 5562 5558 5555 5551 5548 5544 5541 5537 5534 5532 5529 5528 5526 5523 5522 5520 5520 5521 5523 5524 5523 5523 5523 5521 5520 5522